Hourly Data Report for November 18, 2017

CARBERRY CS
MANITOBA

49°54'20.900" N
99°21'26.800" W
383.50 m
5010547
71170
WZE

Download Data

Hourly Data (November 2017)
Hourly Data Report for November 18, 2017
TIME
LST
Temp Definition
°C
Dew Point Definition
°C
Rel Hum Definition
%
Precip. Amount Definition
mm

Wind Dir Definition
10's deg

Wind Spd Definition
km/h
Visibility Definition
km
Stn Press Definition
kPa
Hmdx Definition


Wind Chill Definition


Weather Definition


00:00 -13.0 -16.1 78 0.0 25 14   96.39   -20 LegendNANA
01:00 -13.2 -15.9 80 0.0 24 13   96.49   -20 LegendNANA
02:00 -12.0 -14.6 81 0.0 26 13   96.53   -19 LegendNANA
03:00 -11.1 -13.8 81 0.0 26 13   96.60   -18 LegendNANA
04:00 -9.6 -13.6 73 0.0 29 21   96.66   -18 LegendNANA
05:00 -12.1 -15.5 76 0.0 28 18   96.73   -20 LegendNANA
06:00 -13.2 -16.7 75 0.0 29 22   96.79   -22 LegendNANA
07:00 -14.5 -17.6 77 0.0 29 19   96.86   -23 LegendNANA
08:00 -15.7 -19.0 76 0.0 28 11   96.92   -22 LegendNANA
09:00 -14.4 -18.4 71 0.0 27 19   96.99   -23 LegendNANA
10:00 -13.8 -18.2 69 0.2 26 24   97.01   -23 LegendNANA
11:00 -13.3 -17.9 68 0.0 26 23   97.01   -23 LegendNANA
12:00 -12.4 -17.3 67 0.0 26 34   97.00   -23 LegendNANA
13:00 -11.8 -17.3 63 0.0 27 30   96.99   -22 LegendNANA
14:00 -11.0 -16.7 63 0.0 27 35   96.95   -22 LegendNANA
15:00 -10.8 -16.7 62 0.0 26 24   97.02   -20 LegendNANA
16:00 -11.0 -16.6 63 0.0 26 17   97.00   -18 LegendNANA
17:00 -11.5 -16.5 66 0.0 25 11   97.06   -17 LegendNANA
18:00 -12.8 -17.6 68 0.0 27 7   97.03   -17 LegendNANA
19:00 -12.3 -17.1 67 0.0 26 16   97.00   -20 LegendNANA
20:00 -12.0 -17.1 66 0.0 27 14   97.01   -19 LegendNANA
21:00 -14.1 -18.4 70 0.0 27 11   97.01   -21 LegendNANA
22:00 -13.8 -17.6 73 0.0 24 11   96.98   -20 LegendNANA
23:00 -15.2 -18.0 79 0.0 27 15   96.94   -23 LegendNANA

Notes on Data Quality.

Legend

  • E = Estimated
  • M = Missing
  • NA = Not Available*
  • [empty] = Indicates an unobserved value
Date modified: